GFSWCAN_sfc_temp_132.txt.gz
Temp
56 56 56 56 56 56 56 56 57 58 57 58 58 59 59 59 58 53 51 56 57 55 61 70 72 64 64 58 54 59 58 58 54 49 48 47 47 49 47 49 49 46 43 42 42 39 39 61 61 53 54 55 61 60
56 56 56 56 56 56 56 56 56 56 57 57 58 59 58 58 58 57 48 61 63 56 61 68 73 74 74 70 61 56 58 55 56 51 49 49 49 47 44 43 52 46 49 45 46 46 52 54 55 56 54 56 55 59
57 55 55 55 55 55 55 56 56 57 57 57 57 58 58 58 58 56 49 51 55 56 61 63 67 72 74 72 68 59 56 61 58 57 52 50 50 48 44 45 47 50 51 47 48 50 51 54 56 58 59 59 60 62
56 55 55 55 55 55 55 56 56 56 57 57 57 58 58 57 57 57 48 53 53 56 53 61 73 72 70 74 72 68 65 63 61 57 51 48 49 53 47 51 48 52 51 47 45 48 50 56 57 59 63 63 65 62
56 55 55 55 55 55 55 55 56 56 57 57 57 57 57 57 56 54 51 53 57 56 54 58 66 66 70 71 71 68 62 58 54 54 50 50 50 52 49 49 47 52 51 46 46 52 52 53 58 59 59 61 61 61
55 54 54 54 54 55 55 55 55 56 56 56 57 57 57 56 56 48 51 56 59 61 53 53 62 63 67 70 68 63 61 57 55 53 51 52 56 52 46 43 54 56 56 55 53 55 55 56 59 61 59 63 64 61
55 54 54 54 54 54 55 55 55 55 55 56 56 56 56 55 49 50 54 58 55 55 55 54 54 62 68 65 61 61 59 57 56 51 51 51 52 51 44 42 54 56 57 57 59 58 53 57 56 60 61 65 63 64
55 54 54 54 54 54 54 55 55 55 55 56 56 56 55 55 52 52 59 58 55 57 58 51 53 57 61 56 55 56 55 54 54 53 51 50 50 48 43 50 55 58 58 57 58 59 58 57 58 59 62 64 62 60
55 54 54 54 54 54 54 54 55 55 55 56 56 56 52 49 50 57 64 58 58 59 52 51 50 49 60 56 55 56 54 49 53 51 50 51 44 40 50 52 53 57 56 58 58 59 60 60 60 62 62 63 62 59
55 54 54 54 54 54 54 54 55 55 54 56 52 52 50 56 63 64 60 57 57 56 54 52 53 52 58 53 53 53 51 48 45 51 53 47 45 51 54 57 58 60 60 60 56 56 56 55 59 61 63 61 60 60
54 54 54 54 54 54 54 54 54 54 56 54 52 51 55 61 59 55 52 50 50 49 51 54 54 54 59 55 52 53 49 49 45 49 50 43 43 52 56 56 57 59 61 62 61 61 61 61 60 60 60 61 60 59
53 54 54 54 54 54 54 54 54 54 54 52 52 53 55 55 52 50 48 50 49 49 54 53 55 57 57 58 53 52 51 50 46 53 49 41 47 53 56 58 59 58 63 64 64 64 63 64 62 59 59 58 58 57
53 53 53 53 54 54 54 54 54 54 53 54 53 52 49 51 42 46 44 46 47 54 56 53 52 56 56 56 53 52 50 48 53 49 42 46 51 54 55 58 58 59 62 63 63 62 62 60 61 61 57 58 58 57
53 53 53 53 53 54 54 54 54 53 51 51 49 38 45 43 47 48 50 51 58 59 57 54 50 53 53 53 51 51 53 53 48 41 47 49 52 55 56 57 58 59 61 61 61 60 59 58 58 58 58 57 57 56
53 53 53 52 53 53 54 54 54 54 52 49 49 40 44 49 51 56 58 57 60 61 60 55 53 52 50 53 52 52 50 48 49 47 50 52 54 55 55 57 58 58 59 58 58 57 58 58 57 56 56 55 55 55
53 52 50 54 55 54 54 53 54 53 52 50 48 47 48 48 52 55 55 52 53 53 53 58 50 49 51 52 51 50 50 48 51 52 53 54 55 55 56 57 58 58 57 58 57 56 57 56 54 53 54 55 55 54
52 49 54 54 54 54 53 51 53 50 49 48 46 48 48 50 51 54 52 52 53 52 49 49 49 53 55 51 50 53 51 52 54 53 54 57 57 55 56 56 56 56 55 54 53 54 53 53 55 56 51 52 51 55
49 53 54 53 53 53 52 51 49 48 45 47 45 46 49 52 52 55 53 53 53 51 50 49 50 50 51 52 51 56 53 53 54 55 57 55 56 56 58 56 56 56 55 54 53 52 52 55 55 53 54 54 54 55
51 52 53 53 53 51 48 49 49 44 47 49 47 49 48 51 56 57 55 54 55 54 51 50 48 48 52 52 50 50 50 52 54 55 56 57 56 56 56 56 55 53 53 51 50 49 49 50 54 54 53 53 53 51
52 53 53 53 53 49 47 47 52 47 43 46 48 48 49 51 55 57 57 53 51 51 49 48 50 52 50 51 53 53 53 52 54 53 53 54 56 57 56 55 53 50 50 49 49 49 49 48 49 50 52 51 52 50
52 53 53 52 51 49 48 48 46 48 49 49 54 53 51 52 53 54 55 53 49 48 47 49 52 54 55 55 54 53 52 52 53 53 53 53 55 55 55 55 54 51 50 48 48 48 48 49 50 50 50 50 50 52
52 54 51 51 48 50 47 50 49 51 48 51 52 53 51 49 50 52 55 51 50 51 53 52 54 57 55 55 55 55 56 54 54 54 52 52 53 54 55 55 54 50 50 50 50 50 50 51 51 51 51 51 53 53
52 52 50 50 46 44 42 51 48 50 47 51 52 50 50 49 53 56 52 55 55 56 57 57 57 57 59 57 55 56 56 57 55 55 56 54 55 54 53 53 55 52 50 50 52 51 51 51 51 52 51 53 52 50
52 49 47 46 46 42 50 49 53 51 53 49 52 51 53 50 54 51 48 52 53 54 53 53 54 53 53 52 52 52 52 52 53 54 55 55 53 53 56 59 55 54 56 54 53 53 52 53 51 52 52 55 52 52
43 43 44 37 48 46 49 50 51 48 50 51 51 50 49 50 48 49 48 51 51 51 53 53 55 54 53 53 53 54 58 56 55 53 54 57 57 55 54 54 54 55 57 55 54 53 53 52 53 54 54 53 53 53
37 44 40 48 49 48 48 48 50 49 50 50 50 48 49 47 46 47 48 50 52 53 53 53 54 53 53 54 53 53 55 57 56 54 53 57 59 58 55 52 52 54 57 59 56 57 58 57 55 56 56 55 50 55
38 44 50 52 52 52 51 53 53 49 50 51 49 49 48 47 47 50 52 52 52 55 55 56 57 56 55 55 57 59 59 60 57 57 57 57 58 61 62 57 53 56 59 61 63 63 59 59 57 58 56 55 57 57
48 52 48 49 48 50 50 49 51 51 50 52 51 49 50 49 47 52 54 57 57 57 57 59 57 57 55 55 61 61 61 59 59 57 57 57 57 61 60 59 61 54 59 59 62 61 60 60 59 61 61 57 56 57
47 53 54 48 50 51 50 51 51 51 53 52 50 50 51 52 55 56 58 63 60 57 55 56 57 61 60 62 62 63 62 60 56 54 53 52 53 56 56 56 57 55 55 56 51 53 58 56 57 58 57 56 56 59
51 53 50 53 50 50 51 52 53 55 54 54 55 54 54 53 57 60 62 63 61 58 57 58 59 62 58 57 57 58 59 59 60 58 57 55 56 57 57 59 58 57 57 57 56 53 48 52 51 55 57 56 54 54
53 51 51 53 52 53 55 54 56 58 58 56 58 54 53 53 58 60 61 62 63 62 59 59 59 62 59 57 59 62 58 64 61 64 62 63 65 60 59 60 59 57 57 57 57 56 55 56 55 58 58 57 56 54
52 52 53 53 52 55 55 54 54 52 54 54 53 53 53 55 54 58 62 63 60 58 58 62 62 60 62 62 62 61 56 60 58 63 61 61 60 61 61 59 59 59 58 58 56 57 57 56 55 56 56 57 56 56
52 54 56 55 53 52 55 57 55 52 52 50 51 51 52 52 53 59 64 67 65 61 60 61 61 62 61 61 59 57 53 55 48 46 46 47 50 55 59 59 60 62 62 60 57 60 56 57 56 59 57 56 57 59

GFSWCAN_sfc_temp_138.txt.gz
Temp
56 56 56 56 56 56 56 56 56 58 58 58 58 58 58 58 58 54 50 49 48 47 51 60 65 61 60 55 54 56 55 55 49 46 44 43 42 44 43 44 43 44 42 40 39 38 41 55 58 52 54 54 58 60
55 55 56 56 55 55 56 56 56 56 56 57 58 58 58 58 58 56 48 52 52 46 52 57 65 69 67 64 56 50 55 51 52 46 43 43 44 42 40 41 45 43 46 44 46 46 51 52 51 54 54 56 58 59
55 55 55 56 55 55 55 56 56 56 56 56 57 58 58 57 57 56 49 48 48 48 53 56 66 65 63 66 66 58 53 54 50 50 46 45 47 44 41 43 44 46 46 45 47 49 50 52 55 56 56 56 59 60
55 55 55 55 55 55 55 55 55 56 56 56 57 57 57 57 57 57 52 47 46 48 47 56 65 63 66 65 66 63 60 54 52 50 46 44 46 47 43 47 46 48 48 44 45 49 51 55 55 57 59 60 60 60
55 55 55 55 55 55 55 55 55 55 56 56 56 57 57 57 56 55 54 56 50 49 47 51 58 59 60 64 64 63 59 54 51 51 47 47 43 46 42 44 43 48 48 46 46 51 53 53 55 58 59 60 60 59
54 55 55 55 54 54 55 55 55 55 55 55 56 56 56 56 55 52 44 50 53 50 49 48 56 57 60 63 62 59 55 51 49 49 46 44 48 47 43 41 49 50 50 52 54 51 53 54 56 59 59 60 60 59
54 54 55 55 54 54 54 55 55 55 55 55 55 55 55 55 53 45 48 49 52 51 50 49 50 57 60 57 55 55 53 50 51 46 46 47 46 46 41 41 53 53 54 53 54 55 53 56 55 58 60 62 61 59
54 54 54 54 54 54 54 54 54 55 55 55 55 55 55 54 53 48 53 54 51 50 51 48 49 53 55 52 52 49 50 49 48 46 44 47 45 43 42 48 49 52 55 55 54 56 57 55 56 57 60 60 58 57
54 54 54 54 54 54 54 54 54 54 54 55 55 55 49 46 42 50 58 58 54 53 52 51 51 48 55 48 49 50 48 48 47 46 46 48 41 39 49 50 51 53 55 57 55 56 57 57 55 57 59 58 57 56
54 54 54 54 53 54 54 54 54 54 54 54 53 48 44 48 58 57 54 49 49 52 53 51 51 50 55 48 46 48 45 46 44 47 47 44 42 47 51 52 54 55 55 55 53 51 53 54 55 56 58 59 59 58
54 54 54 54 53 53 54 54 54 54 55 54 51 50 52 56 52 49 50 48 48 47 49 52 51 51 57 53 49 48 45 44 42 46 47 42 41 48 52 52 53 55 55 56 59 59 58 58 57 56 58 59 58 58
54 53 53 53 53 53 53 54 53 50 52 50 49 51 52 52 48 46 45 46 47 47 50 50 52 54 54 52 52 47 47 45 44 48 46 40 46 50 51 52 53 53 56 57 58 59 60 60 58 58 58 58 58 58
53 53 52 53 53 53 53 53 53 53 51 52 50 50 48 48 40 43 41 42 43 49 50 51 52 53 51 53 50 46 46 45 49 45 41 46 50 51 51 52 54 54 57 58 58 59 60 59 58 57 57 56 56 56
52 52 52 52 53 53 53 53 54 52 48 47 48 38 44 42 43 43 44 45 50 51 51 50 48 50 48 50 49 48 49 48 44 39 44 49 53 53 52 52 54 54 56 57 58 58 58 57 56 56 56 55 55 54
52 52 52 52 53 53 53 53 53 49 50 47 46 39 44 47 46 48 49 48 51 51 52 50 49 50 47 47 47 47 46 47 46 45 49 52 53 52 50 52 54 54 54 55 55 55 55 54 54 53 54 54 55 54
52 52 51 53 54 54 53 52 50 50 50 48 46 43 46 43 46 46 48 48 49 49 52 51 47 48 49 47 46 47 47 45 49 51 53 51 51 50 51 53 54 54 54 54 53 54 53 52 53 53 52 53 53 53
51 47 53 53 54 53 53 50 51 48 48 47 42 45 43 44 46 50 51 50 49 48 47 50 48 48 47 44 46 49 48 52 53 54 53 51 52 51 51 52 54 54 53 52 51 51 51 51 51 52 50 50 51 51
47 52 53 53 52 52 50 50 48 47 44 43 40 41 44 45 49 52 52 53 49 47 48 47 50 47 45 44 45 49 51 53 52 53 53 52 51 51 55 54 54 54 52 52 51 50 49 50 52 54 51 50 50 51
51 51 52 53 52 50 47 48 48 43 46 47 43 42 43 44 46 48 51 53 53 50 49 47 47 43 44 46 49 50 51 49 49 50 51 52 51 53 54 53 54 53 53 51 49 51 51 52 54 51 53 54 54 54
52 52 53 53 53 48 47 46 50 45 42 46 44 41 42 42 45 46 49 49 50 49 45 45 45 48 48 51 52 52 52 52 51 51 51 51 52 53 53 54 52 51 50 49 48 46 48 48 50 52 56 57 55 54
51 51 52 52 50 49 47 46 46 46 46 45 49 47 45 43 43 44 44 47 46 46 45 47 49 51 53 53 53 53 54 53 52 52 52 51 53 54 53 53 53 51 50 48 49 48 48 50 50 51 54 54 56 55
48 53 48 50 47 49 46 47 46 48 46 47 48 50 48 44 43 45 48 45 44 47 48 50 51 53 51 52 53 56 55 55 55 53 50 52 54 53 51 51 51 51 50 50 50 50 50 49 50 51 53 53 52 53
51 51 49 49 45 42 42 48 45 46 44 47 50 48 48 48 49 50 47 48 51 54 57 55 53 53 55 56 55 56 57 54 53 53 53 54 53 52 51 50 53 52 51 50 52 52 51 47 49 51 51 51 51 51
51 48 46 45 44 41 48 45 48 44 47 44 47 48 50 48 50 48 47 49 52 53 51 51 51 51 53 53 52 54 55 54 53 53 53 53 51 50 51 51 51 53 55 55 53 52 52 52 49 52 52 52 51 51
41 42 42 37 47 44 44 43 46 45 46 48 45 46 45 47 44 43 45 49 50 50 50 51 52 53 52 51 51 52 53 53 52 51 53 54 52 52 52 53 53 55 56 54 53 53 53 53 52 53 52 52 52 51
37 44 40 46 45 44 46 46 48 48 48 48 47 46 46 47 47 45 48 51 49 50 51 51 51 51 51 51 50 51 52 53 53 52 52 54 54 53 52 51 51 52 55 57 55 55 55 53 53 53 53 52 47 54
38 41 44 46 47 49 48 49 50 46 47 49 48 48 48 44 44 47 51 52 51 53 54 53 53 53 52 52 53 53 55 55 55 55 56 56 56 57 56 54 53 55 55 57 57 57 56 55 54 54 54 54 54 55
44 46 43 48 47 49 45 46 46 48 48 50 50 47 47 48 48 51 52 55 56 57 57 57 56 55 55 55 55 55 53 55 54 55 55 54 54 55 56 57 56 47 55 56 58 58 58 58 57 56 56 55 55 57
41 45 48 45 48 48 47 49 49 50 52 51 48 48 49 52 54 55 55 55 55 57 54 53 52 57 57 57 55 56 57 57 55 53 51 51 53 55 54 55 55 54 54 54 48 52 56 55 55 55 58 59 60 57
44 50 48 49 48 48 49 51 50 53 53 53 53 52 52 52 54 54 53 53 54 55 57 54 53 57 54 56 53 54 55 55 57 57 54 53 55 55 55 56 57 57 56 56 56 52 45 53 51 56 55 55 56 56
48 47 46 49 48 50 52 53 53 54 53 53 54 51 51 51 54 54 54 53 53 55 56 55 55 54 55 55 55 54 55 56 57 59 57 58 58 57 56 56 56 55 56 57 56 56 55 56 56 56 57 56 56 54
46 47 49 48 48 52 54 51 51 50 51 51 49 48 49 51 51 54 55 55 55 56 53 54 56 57 57 56 56 57 49 58 58 58 58 59 58 58 59 58 56 57 57 56 56 56 56 56 56 57 57 57 57 57
47 48 50 50 50 49 51 52 52 51 50 48 49 49 48 49 52 55 57 56 57 57 57 57 57 57 58 58 57 55 51 55 50 46 48 48 48 51 56 57 57 58 58 57 56 57 56 57 56 56 57 57 57 57

GFSWCAN_sfc_temp_141.txt.gz
Temp
56 56 56 56 56 56 56 56 56 56 58 57 58 58 59 58 58 57 57 57 57 57 62 66 70 68 68 68 67 66 69 67 65 62 62 59 58 59 58 58 59 60 58 57 55 55 53 64 67 63 66 66 69 69
56 55 55 55 55 55 55 56 56 56 56 57 57 57 58 58 58 57 52 59 58 54 62 63 68 71 72 74 68 64 68 65 67 63 60 60 59 58 57 56 59 57 62 61 60 61 62 66 65 66 66 66 69 70
55 55 55 55 54 55 55 55 56 56 56 56 57 57 58 58 57 57 54 56 56 54 62 64 71 74 73 73 77 71 67 67 64 66 65 63 60 62 58 60 60 60 59 63 59 61 63 64 65 66 67 68 69 70
55 55 55 55 55 55 55 55 56 56 56 56 57 57 57 57 57 57 54 57 56 56 55 67 73 73 75 76 75 74 70 65 65 66 66 65 64 60 62 61 62 64 60 60 61 63 62 65 66 68 69 69 69 70
55 55 55 55 55 55 55 55 55 55 56 56 56 56 57 57 56 56 55 57 59 54 56 63 69 72 73 74 72 73 71 68 67 65 66 64 62 61 59 60 61 63 62 63 64 69 69 69 70 71 70 71 70 69
54 54 54 55 55 55 55 55 55 55 55 56 56 56 56 56 55 55 51 58 60 57 54 57 69 69 70 71 70 67 68 64 66 66 64 62 59 64 60 59 66 67 65 68 69 66 67 66 67 70 71 70 69 70
54 54 54 54 55 55 55 55 55 55 55 55 55 55 55 55 54 51 55 53 54 58 56 57 62 69 69 69 67 67 64 63 67 62 63 62 61 62 61 57 68 66 66 65 66 66 64 67 70 70 71 70 67 69
54 54 54 54 55 55 55 55 55 55 55 55 55 55 54 54 53 53 61 56 55 55 58 55 58 63 68 66 64 63 64 65 62 61 60 61 57 60 55 63 66 64 65 65 65 67 69 71 69 68 70 69 68 67
53 54 54 54 54 54 54 54 55 55 55 55 55 55 55 54 51 55 58 57 59 56 55 57 56 57 66 62 63 62 62 61 60 62 61 60 57 49 63 64 63 64 64 67 66 67 67 69 68 67 68 68 68 67
54 54 54 54 54 54 54 54 54 54 54 54 54 53 53 56 57 59 58 54 55 58 55 55 59 60 66 61 60 61 59 60 55 61 58 56 58 62 64 66 67 67 67 68 64 63 65 66 66 67 68 70 71 69
53 54 54 54 54 54 54 54 54 54 55 56 52 51 59 58 59 55 52 53 54 52 56 60 58 61 66 62 60 59 57 58 53 58 57 55 55 60 66 65 66 68 67 68 72 73 72 72 69 69 69 70 70 70
54 54 54 54 53 53 53 53 53 54 55 52 52 53 55 56 55 50 51 52 52 54 57 58 62 61 60 60 60 56 55 55 53 58 56 52 61 63 63 63 66 66 67 68 70 70 71 71 71 71 71 70 71 71
53 53 53 53 53 53 53 53 53 53 53 54 51 51 53 54 42 47 46 49 51 58 60 60 59 59 56 59 57 57 53 53 58 55 51 57 64 63 63 63 63 66 67 69 68 70 71 71 69 69 69 71 71 69
52 52 52 52 53 53 53 53 53 54 52 51 50 38 47 48 49 52 53 54 58 58 60 60 59 59 59 57 57 54 56 52 49 49 51 60 64 66 64 63 64 64 66 68 69 69 69 67 68 68 70 69 69 67
52 52 52 53 53 53 53 53 53 55 53 50 50 40 45 55 55 56 56 55 58 59 59 58 58 60 57 55 57 55 49 50 52 51 56 63 65 64 63 63 65 66 66 67 68 68 69 67 66 66 66 67 68 66
52 52 53 53 54 54 54 54 55 55 52 50 49 48 53 51 53 55 56 56 58 58 58 58 55 54 56 56 52 53 54 51 55 56 64 66 64 63 63 64 65 67 66 68 68 67 67 65 65 65 65 66 66 66
51 52 53 53 54 53 53 54 53 51 51 49 49 53 52 51 52 55 57 59 56 54 54 56 52 53 56 52 51 56 55 59 57 61 64 63 64 64 62 63 63 64 65 66 65 63 64 64 65 64 62 63 66 66
51 53 53 53 54 54 54 53 52 50 46 50 47 51 51 54 55 55 55 55 58 55 54 53 56 52 52 50 53 57 58 58 60 60 60 61 62 61 62 62 63 64 65 64 64 63 62 62 63 65 66 63 63 63
51 52 53 53 54 53 50 51 51 45 49 52 51 51 52 54 56 58 58 55 55 56 53 53 54 52 54 56 57 58 59 58 58 57 58 59 59 59 60 62 63 63 63 62 62 64 65 64 68 67 66 64 66 66
52 52 52 53 54 50 48 48 53 48 46 50 50 48 52 54 57 57 58 58 56 51 50 51 53 56 56 59 60 59 58 58 57 57 56 59 58 59 60 61 62 61 63 62 62 56 63 62 64 65 65 65 64 64
52 53 53 53 51 51 48 48 46 47 47 45 49 47 46 49 52 53 54 57 50 51 50 55 58 59 60 60 60 59 59 59 58 57 55 56 59 60 60 60 60 60 59 59 62 60 57 64 64 64 64 64 65 61
52 53 51 51 48 49 48 53 49 49 46 47 48 49 48 48 52 53 57 53 54 57 59 60 61 63 61 59 58 58 59 59 57 55 51 52 59 58 58 58 59 59 59 59 59 62 61 63 63 64 64 64 62 63
51 52 50 49 46 43 44 53 46 48 44 49 51 48 48 49 54 57 53 55 57 58 58 61 61 62 62 63 60 60 61 58 58 58 56 56 57 57 58 58 59 59 58 61 64 64 64 53 56 61 62 62 63 61
51 48 46 45 45 42 50 46 49 50 50 50 50 51 52 52 51 49 50 56 54 54 52 57 58 57 58 59 58 60 61 57 57 59 59 59 58 58 58 59 60 64 66 64 64 62 60 57 54 62 62 61 59 59
41 42 42 37 46 43 44 47 48 49 46 51 51 52 51 52 49 49 50 51 51 53 56 57 55 56 58 58 59 57 57 59 58 58 61 60 59 57 56 56 56 58 63 62 61 60 62 62 63 62 62 62 62 62
36 44 39 46 46 46 47 46 48 47 49 50 51 52 51 49 47 48 52 55 55 57 58 58 58 57 57 59 58 56 55 57 59 58 58 59 59 59 56 54 53 53 57 62 59 61 61 62 62 62 63 60 50 62
37 43 49 52 49 49 47 52 53 50 49 48 49 50 48 42 46 53 55 53 53 58 58 58 60 59 58 57 57 58 59 60 61 62 61 60 63 65 61 56 55 54 58 64 65 65 64 63 64 64 64 65 65 65
47 49 46 49 47 50 49 51 50 49 47 48 49 47 46 49 51 57 57 58 57 58 58 58 60 58 60 58 58 57 59 62 62 63 62 62 62 63 64 64 64 48 64 66 67 68 68 67 66 66 66 66 66 67
46 51 50 47 49 49 50 50 49 51 53 51 48 47 51 57 58 60 62 58 62 64 63 61 60 58 58 60 60 63 64 66 64 61 60 61 63 63 66 67 65 66 65 64 49 57 65 65 64 64 64 65 66 69
48 52 48 50 50 49 50 52 51 54 53 53 54 55 57 59 62 63 64 64 66 64 64 65 64 64 62 62 61 64 68 70 71 69 66 64 66 66 68 68 68 69 68 67 67 60 45 59 54 65 64 66 66 66
52 51 50 51 48 50 51 53 54 54 54 54 58 55 57 59 66 65 65 66 67 68 67 66 67 69 69 68 68 67 67 70 69 69 71 72 71 70 71 71 71 70 70 70 68 68 66 67 67 67 66 66 66 65
52 51 51 46 47 52 53 51 51 53 55 54 53 55 59 63 60 65 67 69 71 70 58 67 69 69 70 70 71 71 51 72 71 71 69 72 71 70 71 71 71 71 70 70 70 69 67 67 68 67 67 66 66 67
53 51 50 49 49 51 55 56 55 52 54 53 53 56 58 59 59 65 68 67 69 70 71 71 70 70 68 69 69 67 59 65 52 46 48 50 52 58 69 72 71 71 70 70 70 70 67 66 66 66 67 67 67 67

GFSWCAN_sfc_temp_144.txt.gz
Temp
57 57 56 56 56 56 56 56 56 57 57 57 58 58 59 59 58 59 66 67 66 68 74 75 78 75 79 80 77 79 78 77 78 71 71 70 67 70 66 68 67 66 64 66 66 61 57 76 75 68 71 76 78 78
56 56 56 56 55 55 55 55 56 56 56 57 57 57 58 58 58 58 62 70 69 63 71 75 76 79 79 80 79 80 79 79 84 78 75 77 70 71 68 62 70 65 71 68 68 67 72 76 74 76 77 77 77 78
56 55 55 55 55 55 55 55 55 56 56 56 57 57 58 58 58 58 59 62 65 65 71 75 78 84 87 85 88 78 82 82 79 79 82 78 67 76 66 68 70 70 71 71 68 72 72 75 76 77 78 78 79 80
55 55 55 55 55 55 55 55 56 56 56 56 57 57 57 57 57 57 57 62 64 66 64 77 84 80 85 87 84 85 83 81 82 83 80 77 73 76 73 71 71 74 71 70 70 72 73 75 76 77 77 78 78 79
55 55 55 55 55 55 55 55 55 56 56 56 56 57 57 57 56 59 59 60 64 63 64 73 81 83 86 84 82 82 83 81 81 77 76 74 78 74 76 73 72 75 73 70 72 77 75 76 80 80 78 77 78 78
54 55 55 55 55 55 55 55 55 55 56 56 56 56 56 56 55 59 53 63 62 64 63 66 80 77 79 82 80 79 81 80 83 80 79 78 71 72 70 68 77 81 80 80 76 80 79 79 80 82 79 80 79 79
54 54 54 54 55 55 55 55 55 55 55 55 55 55 55 55 55 56 57 58 57 65 64 66 71 76 79 79 80 79 79 79 81 79 75 77 73 70 70 64 75 77 79 77 78 77 73 76 77 80 80 79 74 80
54 54 54 54 55 55 55 55 55 55 55 55 55 55 55 54 53 53 67 56 59 65 67 62 67 70 78 75 73 79 75 77 75 77 74 72 71 71 63 72 75 78 76 75 75 79 79 80 80 78 80 78 76 76
54 54 54 54 54 55 55 54 55 55 55 55 55 55 57 57 56 65 58 58 65 64 61 65 64 64 77 76 77 75 77 68 72 70 71 71 69 56 68 71 74 75 73 75 76 78 78 77 77 76 77 77 77 76
53 54 54 54 54 54 54 54 54 54 54 54 57 55 55 63 58 60 62 60 60 65 63 61 74 68 74 73 71 71 73 68 62 69 69 65 66 72 74 76 76 77 77 79 73 71 75 75 75 76 76 78 78 78
53 53 54 54 54 55 54 54 54 54 54 61 57 56 64 58 61 62 58 58 61 57 64 66 70 69 77 68 69 72 68 68 60 66 64 63 64 73 76 75 77 77 77 78 79 79 79 79 77 77 77 78 78 78
53 54 54 54 54 54 54 54 54 59 62 57 57 55 62 56 55 52 57 61 59 59 66 65 69 72 73 76 70 67 64 64 58 68 63 58 70 74 73 74 76 76 76 78 80 79 79 80 80 79 78 77 79 79
53 53 53 53 53 53 53 53 54 54 55 59 53 53 59 59 44 49 48 57 60 66 68 68 64 68 69 72 67 61 59 59 68 60 57 62 73 74 73 74 74 76 77 78 78 80 79 79 79 78 78 79 80 78
52 52 53 53 53 53 53 53 54 56 58 54 54 39 53 52 56 59 61 64 68 70 71 70 69 62 69 62 52 50 62 63 55 54 57 67 72 75 75 75 73 73 75 77 77 78 77 76 76 77 79 79 78 77
52 52 52 53 53 53 53 53 54 61 58 54 56 43 53 61 65 66 68 66 69 72 69 68 67 67 65 57 62 58 54 52 57 56 64 71 74 75 74 74 75 74 75 77 78 77 77 77 76 75 77 77 78 76
52 52 57 54 54 54 54 54 59 62 59 56 55 54 61 59 61 63 65 64 71 70 68 66 62 60 60 63 58 56 56 54 62 65 72 74 71 71 72 74 75 76 76 78 78 78 77 76 75 75 74 75 76 75
51 55 53 54 54 54 54 59 59 56 57 55 57 65 62 61 60 62 67 68 68 64 57 63 56 56 67 59 57 64 61 67 71 72 70 67 66 67 69 72 73 74 74 76 76 75 76 76 75 73 70 72 75 75
55 55 53 54 56 56 61 59 56 55 51 58 56 60 61 62 62 65 67 65 63 59 58 56 59 57 57 56 60 68 70 71 71 70 69 68 67 68 71 70 71 72 73 73 74 74 73 72 71 73 71 72 72 72
52 54 53 53 56 55 54 56 57 51 55 59 60 61 61 62 64 65 66 62 57 61 62 58 55 57 60 67 67 69 71 71 68 69 69 68 67 67 68 70 71 72 72 72 72 74 75 73 77 77 75 73 74 75
52 52 53 53 55 55 51 53 61 53 52 56 59 55 57 58 62 64 64 65 64 59 52 54 60 62 64 68 72 71 71 70 69 68 69 72 71 66 66 69 72 72 72 71 73 66 74 74 77 77 77 75 76 75
52 55 54 53 53 56 55 52 51 49 52 47 52 50 48 48 51 58 61 66 62 58 58 62 62 69 68 71 73 73 69 69 68 68 66 67 70 70 68 68 71 73 73 73 72 69 67 74 74 75 74 74 77 77
56 54 52 53 49 54 53 60 55 54 47 48 47 50 47 49 52 57 64 60 59 62 65 65 67 68 68 67 69 67 69 68 65 64 54 58 68 69 69 70 71 72 73 74 74 71 71 68 66 67 70 74 70 74
52 55 55 55 48 47 48 59 49 48 44 49 52 47 48 52 56 64 58 63 63 65 68 69 68 68 67 69 69 69 68 67 64 66 63 63 68 69 70 70 73 70 67 68 70 68 67 59 62 69 72 72 70 64
51 48 48 46 45 43 53 47 50 51 55 53 56 53 55 55 55 52 53 60 57 55 54 62 65 66 68 66 67 69 71 66 67 65 66 68 65 64 65 65 69 65 69 68 67 69 68 69 61 69 67 66 66 64
42 44 44 37 47 44 46 49 53 53 51 56 55 57 56 59 52 53 52 55 53 57 59 61 63 66 65 67 69 70 67 62 56 56 60 61 64 70 66 66 62 61 63 62 65 67 68 68 70 69 68 67 65 62
36 45 40 46 46 44 49 47 48 47 51 52 54 55 58 51 49 49 52 58 54 59 63 62 63 62 65 68 63 57 58 64 65 61 60 65 66 64 61 58 57 57 62 64 62 63 66 68 68 68 69 66 55 69
38 43 53 54 51 51 49 53 57 55 51 50 50 48 46 45 49 54 56 55 54 61 64 61 60 59 61 59 64 64 68 69 68 68 68 67 69 70 68 65 62 61 59 62 67 68 69 70 70 70 70 71 71 72
46 50 48 53 55 57 50 54 52 50 48 48 48 46 49 52 51 59 60 67 65 61 59 61 58 66 64 60 64 66 69 69 69 68 67 68 71 71 71 72 68 48 64 71 73 73 72 72 71 71 71 71 72 74
50 58 57 51 52 52 53 54 51 51 53 50 47 50 56 61 62 64 64 69 70 69 63 59 59 62 66 70 72 73 74 74 69 65 64 65 67 68 71 71 67 70 71 70 47 60 71 73 73 74 73 74 75 76
55 59 52 53 53 53 53 55 53 55 54 56 58 60 62 66 69 75 75 75 72 66 67 68 68 68 66 72 72 73 79 80 78 75 71 70 71 75 75 75 75 75 76 75 74 71 46 63 58 71 70 73 74 72
59 56 53 54 52 52 52 52 54 56 56 59 64 64 64 68 71 75 75 77 77 77 75 71 73 76 76 75 74 73 72 77 77 78 79 78 78 77 77 78 79 78 78 77 76 75 75 73 74 73 72 72 72 70
57 54 51 45 46 52 53 53 53 55 59 61 61 68 69 68 65 71 77 79 77 75 62 73 75 75 78 79 79 78 58 79 78 78 78 79 79 79 80 80 80 79 78 77 77 76 74 74 74 74 73 71 72 72
52 48 48 48 48 50 58 59 59 59 61 61 62 67 70 67 64 72 78 78 77 78 77 78 79 79 77 77 77 75 69 74 55 42 46 50 53 62 79 81 80 79 77 78 78 77 74 73 73 72 72 72 72 72

GFSWCAN_sfc_temp_147.txt.gz
Temp
57 57 57 57 57 56 56 57 57 57 57 58 58 58 59 59 59 62 70 76 70 71 79 83 84 79 84 84 80 85 82 83 82 74 75 75 71 74 70 73 70 66 64 66 68 62 58 82 80 71 75 78 72 80
56 56 56 56 56 56 56 56 56 56 56 57 58 58 58 58 58 58 67 78 76 67 74 81 83 86 84 85 82 88 84 82 85 80 79 80 74 76 71 65 77 67 74 68 71 65 77 83 80 82 85 82 83 83
56 56 56 56 56 56 56 56 56 56 56 56 57 58 58 58 58 58 63 67 69 68 73 78 79 89 94 92 94 80 88 88 86 89 83 81 70 78 70 71 73 77 79 74 72 78 78 81 82 83 85 84 85 86
55 55 55 55 56 56 55 56 56 56 56 56 56 57 57 57 57 57 60 67 66 69 67 80 94 87 93 95 92 92 89 89 92 89 82 80 77 83 76 76 75 79 77 73 74 77 78 80 82 82 83 85 85 85
55 55 55 56 56 56 56 56 56 56 56 56 56 57 57 57 56 59 63 64 67 63 65 76 87 91 92 91 88 89 88 86 85 81 80 77 85 80 81 78 76 82 76 74 74 80 77 79 83 85 82 81 83 83
55 55 55 55 55 55 56 56 56 56 56 56 56 56 56 56 55 56 54 66 65 67 64 69 86 83 87 88 87 85 87 87 86 83 82 85 82 78 74 72 80 85 85 84 79 84 83 84 85 87 84 84 85 84
54 54 54 55 55 55 56 56 55 55 56 56 56 56 55 55 57 55 54 59 60 67 66 68 73 82 85 86 86 85 84 85 85 82 81 80 80 76 75 69 79 81 83 84 84 83 78 81 81 85 85 84 79 85
54 54 54 54 55 55 55 56 55 55 55 55 55 55 55 54 53 53 64 56 63 67 72 66 70 75 84 79 77 86 80 81 80 80 81 76 77 76 68 76 80 82 83 82 81 84 84 84 85 84 85 84 81 82
54 54 54 54 54 55 55 56 55 55 55 55 55 55 61 57 54 61 60 59 68 64 62 69 67 67 83 79 82 80 82 73 80 74 75 76 72 64 71 74 77 80 80 79 82 83 84 82 81 81 82 81 80 81
54 54 54 54 54 55 55 55 55 55 54 55 59 63 56 64 59 61 60 60 62 67 66 62 76 66 80 78 77 75 78 71 67 73 79 70 69 76 78 78 80 81 82 82 79 76 80 80 80 80 81 82 82 82
54 54 54 54 54 55 55 54 54 54 53 64 63 62 64 59 64 60 56 59 64 61 66 68 73 72 83 70 72 77 69 72 61 68 67 66 66 75 80 81 81 82 83 83 84 84 84 84 82 81 81 82 82 83
53 54 54 54 55 55 55 54 54 58 62 55 59 55 63 55 57 57 58 64 61 59 69 68 71 75 66 81 73 64 67 66 59 75 66 60 70 77 80 80 81 81 82 82 84 83 84 84 84 83 82 81 83 83
54 54 54 54 55 55 54 54 54 55 56 66 58 54 56 54 44 51 51 57 61 70 73 73 68 72 72 76 71 63 60 60 74 65 60 66 73 78 78 80 80 82 82 82 83 84 84 83 83 83 81 82 83 82
53 53 53 53 53 54 54 54 54 57 60 55 54 41 53 53 56 59 63 63 71 74 72 74 70 69 64 68 65 57 65 66 58 58 60 71 73 76 79 80 80 79 80 81 82 83 82 80 80 82 82 82 82 80
53 53 53 53 53 54 54 54 54 62 59 54 57 47 56 65 65 66 69 69 72 74 72 72 71 65 62 54 63 61 54 53 57 59 69 76 76 77 78 80 80 80 80 81 82 82 81 80 79 79 82 82 81 80
53 51 57 55 55 55 54 55 60 63 62 59 58 58 66 60 63 65 62 64 70 70 71 70 61 62 62 63 59 56 56 54 60 67 73 77 72 72 74 78 79 80 80 81 82 82 81 80 79 79 81 81 81 80
51 56 54 54 55 55 54 57 60 58 60 57 60 69 67 63 59 62 65 64 68 65 61 64 58 58 69 62 61 65 61 65 61 70 75 70 70 70 72 75 78 79 78 79 80 80 80 81 81 79 75 77 80 80
54 56 54 54 56 56 62 61 57 58 54 62 61 65 64 68 67 69 72 72 65 61 62 59 62 60 58 58 62 69 71 73 74 73 73 71 71 71 74 73 76 77 77 79 79 79 79 78 77 77 76 77 78 78
53 55 53 54 56 58 56 60 62 55 60 64 64 67 65 66 69 71 71 70 71 68 63 61 55 59 60 66 67 70 61 70 71 71 75 73 72 71 71 73 74 75 76 76 77 79 79 77 79 80 80 78 78 78
53 53 53 54 55 55 57 60 67 59 58 59 60 57 58 60 62 64 67 69 66 62 60 57 59 67 67 71 72 71 71 72 73 71 72 76 78 72 71 73 74 74 76 76 77 69 79 78 82 81 81 78 79 77
52 57 54 56 60 59 60 59 56 61 60 55 60 55 53 61 58 61 62 68 64 59 59 65 67 69 69 66 56 71 73 74 72 72 71 72 75 75 75 74 75 76 75 76 77 76 72 79 81 81 80 79 80 79
57 55 58 59 51 58 59 66 60 56 56 50 48 50 49 50 57 58 65 58 59 65 68 69 71 71 72 69 71 71 72 71 72 71 55 61 70 74 74 75 75 75 76 77 78 77 77 80 79 79 77 78 71 75
52 57 54 58 53 50 51 61 52 51 45 49 49 46 50 51 55 60 56 63 63 61 62 65 68 71 71 72 69 68 72 71 72 74 74 71 66 66 73 75 77 76 76 78 79 76 73 61 68 73 72 72 70 65
52 54 51 52 53 45 56 53 56 53 54 53 54 53 54 55 64 61 57 56 62 64 59 60 62 66 70 69 71 72 72 74 73 73 72 62 59 60 64 65 66 72 75 78 75 75 72 70 62 70 72 72 72 67
43 43 46 37 48 46 47 51 54 56 54 57 56 57 54 60 54 54 56 58 61 65 63 63 64 65 63 62 66 70 75 74 72 72 70 64 63 59 60 63 66 72 77 75 73 71 69 67 69 69 69 72 69 67
38 48 43 51 48 46 52 48 50 54 57 56 56 58 56 54 52 51 57 60 62 64 60 58 60 63 66 63 63 69 66 66 63 65 60 65 66 64 59 56 58 59 65 60 59 60 59 59 59 65 71 69 57 70
38 45 53 59 54 49 56 59 59 53 54 51 56 53 49 45 47 56 64 61 56 63 66 65 63 66 63 63 67 69 68 67 67 68 67 66 71 71 66 65 62 64 67 67 62 62 63 68 69 71 72 72 71 71
47 50 47 56 56 59 54 56 56 52 51 52 52 48 49 49 55 60 62 64 62 58 60 59 65 64 64 68 73 71 69 69 70 69 71 67 65 76 72 68 70 51 66 65 65 71 74 75 74 74 73 73 73 76
51 58 56 53 57 58 58 54 49 50 53 52 50 51 54 61 68 68 67 71 71 63 59 58 63 71 74 79 79 80 78 74 71 67 65 65 66 67 72 69 68 71 74 73 46 64 74 75 74 74 75 75 76 76
54 63 58 56 54 54 55 57 54 54 55 56 58 60 63 67 75 78 69 69 70 62 64 64 69 68 73 75 75 75 81 81 79 77 74 73 74 77 76 74 75 77 77 76 76 74 49 67 64 77 75 76 74 72
63 63 58 59 57 60 58 57 57 58 58 61 65 65 68 71 76 80 77 78 78 79 78 77 79 79 78 77 76 76 76 81 81 81 81 81 81 80 80 80 81 80 80 79 78 77 76 74 75 73 72 72 73 71
61 55 51 50 49 51 54 55 54 58 63 64 65 68 70 68 64 71 80 80 79 78 66 76 76 77 79 80 82 81 62 81 81 81 81 82 81 81 82 81 81 81 79 78 75 67 75 76 77 74 75 74 73 74
54 51 50 47 48 50 54 55 57 58 63 62 60 60 68 66 63 72 75 82 79 81 80 81 82 81 80 81 81 79 73 77 55 43 46 44 42 54 76 80 82 81 81 81 78 78 77 76 76 75 75 74 73 74